This is the latest recevied weather packets stored in our database for station/object KE4LOJ. If no packets are shown the sender has not sent any weather packets the latest 10 day(s).
| Time | Temp. | Humidity | Pressure | Rain* | Wind** | Luminosity | Snow |
|---|---|---|---|---|---|---|---|
| 1777589357 | 30° C | 50% | 1009.6 hPa | 0 mm | - | 74 W/m² | - |
| 1777589054 | 30° C | 49% | 1009.7 hPa | 0 mm | - | 72 W/m² | - |
| 1777588750 | 30° C | 47% | 1009.7 hPa | 0 mm | - | 65 W/m² | - |
| 1777588446 | 30.56° C | 46% | 1009.5 hPa | 0 mm | - | 78 W/m² | - |
| 1777588141 | 31.11° C | 45% | 1009.6 hPa | 0 mm | - | 126 W/m² | - |
| 1777587838 | 30.56° C | 45% | 1009.7 hPa | 0 mm | - | 242 W/m² | - |
| 1777587537 | 30.56° C | 45% | 1009.6 hPa | 0 mm | - | 119 W/m² | - |
| 1777587233 | 31.11° C | 43% | 1009.4 hPa | 0 mm | - | 277 W/m² | - |
| 1777586928 | 30.56° C | 43% | 1009.4 hPa | 0 mm | - | 109 W/m² | - |
| 1777586625 | 30.56° C | 43% | 1009.4 hPa | 0 mm | - | 97 W/m² | - |
| 1777586320 | 31.11° C | 42% | 1009.5 hPa | 0 mm | - | 104 W/m² | - |
| 1777586019 | 31.11° C | 42% | 1009.4 hPa | 0 mm | - | 116 W/m² | - |
| 1777585719 | 31.67° C | 42% | 1009.3 hPa | 0 mm | - | 146 W/m² | - |
| 1777585419 | 31.67° C | 41% | 1009.3 hPa | 0 mm | - | 189 W/m² | - |
| 1777585114 | 32.22° C | 40% | 1009.3 hPa | 0 mm | - | 349 W/m² | - |
| 1777584810 | 31.67° C | 41% | 1009.2 hPa | 0 mm | - | 408 W/m² | - |
| 1777584508 | 31.67° C | 41% | 1009.2 hPa | 0 mm | - | 394 W/m² | - |
| 1777584205 | 31.67° C | 41% | 1009.4 hPa | 0 mm | - | 396 W/m² | - |
| 1777583904 | 31.67° C | 40% | 1009.4 hPa | 0 mm | - | 183 W/m² | - |
| 1777583600 | 32.22° C | 40% | 1009.5 hPa | 0 mm | - | 288 W/m² | - |
| 1777583298 | 32.22° C | 40% | 1009.4 hPa | 0 mm | - | 366 W/m² | - |
| 1777582994 | 32.22° C | 41% | 1009.6 hPa | 0 mm | - | 487 W/m² | - |
| 1777582692 | 32.78° C | 40% | 1009.6 hPa | 0 mm | - | 436 W/m² | - |
| 1777582386 | 32.22° C | 41% | 1009.5 hPa | 0 mm | - | 464 W/m² | - |
| 1777582085 | 32.22° C | 41% | 1009.5 hPa | 0 mm | - | 298 W/m² | - |
* Rain latest hour (hover to see other rain measurements)
** Current wind speed in m/s (hover to see current wind gust speed)